Location: Poughquag
(41.6090°N, 73.6820°W)
Time: 11:56:39
(UTC-04:00)

Tiros 1 despin weight - Pass Details

Date: 06 June 2020
Orbit: 593 x 642 km, 48.2° (Epoch: 07 July)

Event Time Altitude Azimuth Distance (km) Brightness Sun altitude
Rises 11:01:00 0° 277° (W) 2,930 ? 59.9°
Reaches altitude 10° 11:03:29 10° 286° (WNW) 2,016 ? 60.3°
Maximum altitude 11:07:48 37° 354° (N) 981 ? 60.9°
Drops below altitude 10° 11:12:04 10° 62° (ENE) 1,990 ? 61.6°
Sets 11:14:30 0° 71° (ENE) 2,887 ? 62.0°
